EW6230 Weather Reports


time (UTC)temp
C
wind
direction
speed
KPH
gust
KPH
rain 1hr
cm
rain 24hr
cm
rain mn
cm
humidity
%
barometer
mb
20260904044527 11 79 0.0 0.0 0.00 0.03 0.03 1 1007.3
20260904043022 11 79 0.0 0.0 0.00 0.03 0.03 1 1007.2
20260904041524 12 79 0.0 0.0 0.00 0.03 0.03 1 1007.3
20260904040013 12 79 0.0 0.0 0.00 0.03 0.03 1 1007.3
20260904034508 12 79 0.0 0.0 0.00 0.03 0.03 1 1007.2
20260904033006 12 79 0.0 0.0 0.00 0.03 0.03 1 1007.0
20260904031613 12 79 0.0 0.0 0.00 0.03 0.03 1 1006.9
20260904030055 12 80 0.0 0.0 0.00 0.03 0.03 1 1006.8
20260904024551 13 80 0.0 0.0 0.00 0.03 0.03 2 1006.6
20260904023048 13 80 0.0 0.0 0.00 0.03 0.03 1 1006.6
20260904021550 13 80 0.0 0.0 0.00 0.03 0.03 8 1006.5
20260904020042 13 80 0.0 0.0 0.00 0.03 0.03 14 1006.4
20260904014534 13 80 0.0 0.0 0.00 0.03 0.03 19 1006.2
20260904013030 13 80 0.0 1.6 0.00 0.03 0.03 22 1006.2
20260904011525 13 226 0.0 3.2 0.00 0.03 0.03 13 1006.2
20260904010022 13 205 0.0 0.0 0.00 0.03 0.03 14 1006.1
20260904004517 14 205 0.0 0.0 0.00 0.03 0.03 20 1006.0
20260904003014 15 210 0.0 0.0 0.00 0.03 0.03 31 1005.9
20260904001508 16 210 0.0 1.6 0.00 0.03 0.03 46 1005.8
20260904000003 17 210 0.0 1.6 0.03 0.03 0.03 58 1005.7
20260903234600 17 210 0.0 0.0 0.03 0.03 0.03 48 1005.7
20260903233055 16 210 0.0 3.2 0.03 0.03 0.03 49 1005.8
20260903231556 16 279 0.0 0.0 0.03 0.03 0.03 1 1005.9
20260903230050 15 279 0.0 0.0 0.00 0.00 0.00 6 1006.1
20260903224546 15 279 0.0 0.0 0.00 0.00 0.00 3 1006.2
20260903223039 15 279 0.0 1.6 0.00 0.00 0.00 29 1006.2
20260903221546 15 274 0.0 0.0 0.00 0.00 0.00 29 1006.2
20260903220031 15 274 0.0 0.0 0.00 0.00 0.00 21 1006.1
20260903214526 15 274 0.0 0.0 0.00 0.00 0.00 22 1006.2
20260903213023 15 274 0.0 0.0 0.00 0.00 0.00 38 1006.2
20260903211517 16 274 0.0 0.0 0.00 0.00 0.00 48 1006.0
20260903210015 15 248 0.0 0.0 0.00 0.00 0.00 51 1005.9
20260903204508 15 96 0.0 1.6 0.00 0.00 0.00 49 1005.9
20260903203005 15 129 0.0 1.6 0.00 0.00 0.00 46 1005.7
20260903201600 15 129 0.0 1.6 0.00 0.00 0.00 52 1005.6
20260903200055 15 79 0.0 1.6 0.00 0.00 0.00 56 1005.6
20260903194551 16 314 0.0 1.6 0.00 0.00 0.00 57 1005.6
20260903193048 16 95 0.0 3.2 0.00 0.00 0.00 57 1005.5
20260903191542 17 262 0.0 1.6 0.00 0.00 0.00 59 1005.3
20260903190037 17 219 0.0 1.6 0.00 0.00 0.00 62 1005.3
20260903184533 17 319 0.0 1.6 0.00 0.00 0.00 59 1005.2
20260903183029 17 139 0.0 1.6 0.00 0.00 0.00 55 1005.1
20260903181524 16 321 0.0 1.6 0.00 0.00 0.00 45 1005.0
20260903180033 15 352 0.0 1.6 0.00 0.00 0.00 37 1004.7
20260903174515 15 359 0.0 1.6 0.00 0.00 0.00 44 1004.6
20260903173010 15 2 0.0 1.6 0.00 0.00 0.00 46 1004.4
20260903171505 16 227 0.0 6.4 0.00 0.00 0.00 46 1004.3
20260903170001 16 217 0.0 1.6 0.00 0.00 0.00 43 1004.1
20260903164605 15 246 0.0 0.0 0.00 0.00 0.00 37 1004.0
20260903163052 15 246 0.0 0.0 0.00 0.00 0.00 19 1004.0
20260903161549 15 246 0.0 3.2 0.00 0.00 0.00 23 1004.0
20260903160043 15 1 0.0 0.0 0.00 0.00 0.00 10 1004.0
20260903154538 15 1 0.0 0.0 0.00 0.00 0.00 1 1004.0
20260903153034 13 1 0.0 0.0 0.00 0.00 0.00 1 1003.9
20260903151530 12 1 0.0 0.0 0.00 0.00 0.00 1 1004.0
20260903150026 11 1 0.0 1.6 0.00 0.00 0.00 1 1003.9
20260903144521 11 360 0.0 0.0 0.00 0.00 0.00 1 1003.9
20260903143016 11 359 0.0 0.0 0.00 0.00 0.00 1 1003.8
20260903141515 -17 0.0 0.0 0.00 0.00 0.00 1003.6
20260903140007 -17 0.0 0.0 0.00 0.00 0.00 1003.5
20260903134504 -17 0.0 0.0 0.00 0.00 0.00 1003.4
20260903133059 -17 0.0 0.0 0.00 0.00 0.00 1003.2
20260903131555 -17 0.0 0.0 0.00 0.00 0.00 1003.0
20260903130112 -17 0.0 0.0 0.00 0.00 0.00 1002.9
20260903124547 -17 0.0 0.0 0.00 0.00 0.00 1003.1
20260903123044 -17 0.0 0.0 0.00 0.00 0.00 1002.9
20260903121546 -17 0.0 0.0 0.00 0.00 0.00 1002.7
20260903120035 11 254 0.0 0.0 0.00 0.00 0.00 1 1002.7
20260903114534 11 248 0.0 0.0 0.00 0.00 0.00 1 1002.6
20260903113034 11 248 0.0 0.0 0.00 0.00 0.00 1 1002.5
20260903111522 11 248 0.0 0.0 0.00 0.00 0.00 1 1002.3
20260903110039 11 249 0.0 0.0 0.00 0.00 0.00 1 1002.2
20260903104514 11 249 0.0 0.0 0.00 0.00 0.00 1 1002.1
20260903103010 11 249 0.0 0.0 0.00 0.00 0.00 1 1002.0
20260903101507 11 248 0.0 0.0 0.00 0.00 0.00 1 1002.0
20260903094600 11 249 0.0 0.0 0.00 0.00 0.00 1 1001.9
20260903093053 11 249 0.0 1.6 0.00 0.00 0.00 1 1001.9
20260903091548 11 249 0.0 1.6 0.00 0.00 0.00 1 1001.8
20260903090044 11 249 0.0 0.0 0.00 0.00 0.00 1 1001.8
20260903084539 11 248 0.0 0.0 0.00 0.00 0.00 1 1001.7
20260903083036 11 248 0.0 0.0 0.00 0.00 0.00 1 1001.9
20260903081541 11 249 0.0 0.0 0.00 0.00 0.00 1 1001.8
20260903080026 11 248 0.0 0.0 0.00 0.00 0.00 1 1001.8
20260903074520 11 249 0.0 0.0 0.00 0.00 0.00 1 1001.6
20260903073017 11 248 0.0 0.0 0.00 0.00 0.00 1 1001.6
20260903071515 11 249 0.0 0.0 0.00 0.00 0.00 1 1001.5
20260903070011 11 248 0.0 0.0 0.00 0.00 0.00 1 1001.6
20260903064507 11 248 0.0 0.0 0.00 0.00 0.00 1 1001.5
20260903063005 11 248 0.0 0.0 0.00 0.00 0.00 1 1001.4
20260903061601 11 249 0.0 0.0 0.00 0.00 0.00 1 1001.5
20260903060053 11 248 0.0 0.0 0.00 0.00 0.00 1 1001.6
20260903054551 11 249 0.0 1.6 0.00 0.00 0.00 1 1001.5
20260903053102 11 238 0.0 0.0 0.00 0.00 0.00 1 1001.5
20260903051541 11 238 0.0 1.6 0.00 0.00 0.00 1 1001.5
20260903050035 12 62 0.0 1.6 0.00 0.00 0.00 1 1001.3